[[{"header":{"parameterUnit":"m.s-1","parameterCategory":1,"la1":30.2991,"la2":30.254,"lo1":-89.0895,"lo2":-89.0444,"dy":0.0017,"dx":0.0017,"nx":28,"ny":28,"refTime":"2023-08-19T21:00:00:Z","depth":0,"parameterNumber":2,"parameterNumberName":"U-component_of_WINDS"},"data":[0,0,0,0,0,0,0,0,0,0,0,0,0,0,0,0,0,0,0,0,0,0,0,0,0,0,0,0,0,0,0,0,0,0,0,0,0,0,0,0,0,0,0,0,0,0,0,0,0,0,0,0,0,0,0,0,0,0,-6.0902,-6.0903,0,-6.0938,-6.0938,-6.0938,-6.0798,-6.0794,-6.079,-6.0786,-6.0819,-6.0824,-6.0828,0,0,0,0,0,0,0,0,0,0,0,0,0,-6.0711,-6.0715,-6.0902,-6.0903,-6.0903,-6.0937,-6.0938,-6.0938,-6.0799,-6.0794,-6.0789,-6.0784,-6.0818,-6.0823,-6.0829,0,0,0,0,0,0,0,0,0,0,0,0,0,-6.0775,-6.0717,-6.0902,-6.0838,-6.0832,-6.0937,-6.0938,-6.0939,-6.08,-6.0793,-6.0787,-6.0782,-6.0816,-6.0823,-6.083,-6.0998,0,0,-6.0851,-6.0855,0,0,0,0,0,0,0,0,-6.0772,-6.0782,-6.0847,-6.0842,-6.0836,-6.0857,-6.0883,-6.0958,-6.0801,-6.0812,-6.0786,-6.0778,-6.0837,-6.0842,-6.0862,-6.0999,-6.1001,-6.0852,-6.0856,-6.0859,-6.0861,0,0,0,0,0,0,0,-6.0767,-6.078,-6.0916,-6.0848,-6.0842,-6.0806,-6.0808,-6.0896,-6.0859,-6.0811,-6.0801,-6.0807,-6.0833,-6.0855,-6.0861,-6.1001,-6.0852,-6.0858,-6.0863,-6.0865,-6.1276,-6.1282,0,0,0,0,0,0,-6.0772,-6.0777,-6.0915,-6.0917,-6.0788,-6.0814,-6.0817,-6.0857,-6.0857,-6.0851,-6.0812,-6.08,-6.0846,-6.0853,-6.0862,-6.1056,-6.0859,-6.0866,-6.087,-6.1269,-6.1277,-6.1284,0,0,0,0,0,0,-6.0768,-6.0786,-6.0914,-6.0845,-6.0858,-6.0824,-6.087,-6.0861,-6.0883,-6.0858,-6.0851,-6.0842,-6.0842,-6.0852,-6.0965,-6.1055,-6.0869,-6.0876,-6.1261,-6.1272,-6.1281,-6.1447,0,0,0,0,0,0,-6.0763,-6.0785,-6.0849,-6.0847,-6.0862,-6.1017,-6.0876,-6.0866,-6.0896,-6.0881,-6.0885,-6.0879,-6.0837,-6.0955,-6.0972,-6.1062,-6.0881,-6.1253,-6.1266,-6.1278,-6.1434,-6.1462,-6.1486,0,0,0,0,0,-6.0757,-6.0895,-6.0853,-6.0871,-6.0942,-6.1022,-6.1031,-6.0981,-6.0904,-6.0967,-6.0951,-6.0879,-6.1044,-6.0968,-6.0985,-6.1079,-6.1247,-6.1262,-6.1277,-6.1422,-6.1456,-6.1485,0,0,0,0,0,0,-6.0907,-6.0893,-6.0847,-6.0988,-6.1008,-6.0999,-6.1077,-6.1019,-6.106,-6.1044,-6.0979,-6.0981,-6.1105,-6.1103,-6.1019,-6.1241,-6.1132,-6.1151,-6.1236,-6.1269,-6.1294,-6.129,-6.0887,0,0,0,0,0,-6.0957,-6.1025,-6.1008,-6.1135,-6.1147,-6.1111,-6.1144,-6.1104,-6.1121,-6.1128,-6.112,-6.1139,-6.1194,-6.1232,-6.1282,-6.1434,-6.1431,-6.1507,-6.1534,-6.1555,-6.1571,-6.1649,-6.1682,-6.1334,-6.1333,-6.1333,0,0,-6.106,-6.1061,-6.1107,-6.1165,-6.1175,-6.1244,-6.1118,-6.1198,-6.1248,-6.114,-6.1244,-6.124,-6.1257,-6.1389,-6.1447,-6.1392,-6.1668,-6.1574,-6.1592,-6.1596,-6.1668,-6.1701,-6.173,-6.1344,-6.1342,-6.134,0,0,-6.1282,-6.1292,-6.1396,-6.1409,-6.1427,-6.1402,-6.1428,-6.1428,-6.142,-6.1525,-6.1444,-6.1504,-6.1602,-6.1616,-6.1636,-6.1865,-6.1799,-6.1883,-6.2018,-6.2095,-6.2122,-6.2146,-6.2224,-6.2254,-6.19,-6.1901,-6.1901,0,-6.1407,-6.151,-6.1457,-6.1542,-6.1568,-6.1475,-6.1579,-6.1594,-6.1627,-6.1647,-6.1586,-6.1705,-6.171,-6.1843,-6.1899,-6.192,-6.1945,-6.188,-6.2123,-6.2147,-6.2168,-6.2242,-6.2272,-6.1911,-6.191,-6.1908,-6.1908,0,-6.1661,-6.1734,-6.1816,-6.1851,-6.1887,-6.1982,-6.1941,-6.1985,-6.1942,-6.1924,-6.2031,-6.2034,-6.2081,-6.2111,-6.207,-6.2238,-6.2203,-6.2134,-6.2023,-6.2212,-6.228,-6.2308,-6.1925,-6.1921,-6.1918,-6.1916,0,0,-6.1976,-6.1981,-6.2011,-6.2025,-6.2038,-6.2092,-6.2183,-6.223,-6.2267,-6.2294,-6.2365,-6.2451,-6.2386,-6.241,-6.237,-6.2438,-6.2615,-6.2359,-6.2359,-6.2403,-6.2797,-6.2846,-6.288,-6.2573,-6.2579,-6.2583,-6.2794,0,-6.2191,-6.2344,-6.2299,-6.2453,-6.2517,-6.2431,-6.2509,-6.2525,-6.251,-6.2562,-6.2546,-6.2607,-6.2519,-6.2532,-6.2596,-6.258,-6.2692,-6.2565,-6.2637,-6.264,-6.2631,-6.2916,-6.2968,-6.3167,-6.2821,-6.2825,-6.2829,0,-6.2461,-6.2499,-6.2659,-6.266,-6.2685,-6.2756,-6.2795,-6.2847,-6.2863,-6.2848,-6.2875,-6.2821,-6.2908,-6.28,-6.2917,-6.2831,-6.2859,-6.2856,-6.2862,-6.2863,-6.2742,-6.2921,-6.3229,-6.3258,-6.2871,-6.2867,-6.2864,0,-6.267,-6.2761,-6.2867,-6.2882,-6.2887,-6.2939,-6.2943,-6.2953,-6.2984,-6.3019,-6.3038,-6.3083,-6.3106,-6.3142,-6.3101,-6.3027,-6.3223,-6.3113,-6.3211,-6.3212,-6.3252,-6.3249,-6.3566,-6.3278,-6.3277,-6.3277,-6.3276,0,-6.2912,-6.3012,-6.2961,-6.3026,-6.3135,-6.3083,-6.3193,-6.3187,-6.3197,-6.3259,-6.3188,-6.3247,-6.3192,-6.3246,-6.3215,-6.3315,-6.3328,-6.3316,-6.3305,-6.332,-6.3321,-6.3333,-6.3317,-6.3285,-6.3283,-6.3281,-6.328,0,-6.3161,-6.3131,-6.3241,-6.3238,-6.3239,-6.332,-6.3315,-6.3375,-6.3357,-6.3435,-6.3451,-6.3422,-6.3481,-6.3446,-6.3507,-6.3486,-6.3615,-6.3588,-6.361,-6.3601,-6.3699,-6.3689,-6.4031,-6.4072,-6.3762,-6.3765,-6.3768,0,-6.3315,-6.339,-6.3395,-6.3432,-6.3441,-6.3501,-6.3532,-6.3484,-6.352,-6.3544,-6.36,-6.3654,-6.3694,-6.3794,-6.3777,-6.3823,-6.3794,-6.3911,-6.38,-6.3812,-6.3791,-6.3785,-6.3791,-6.3932,-6.3936,-6.3939,-6.3941,0,-6.3591,-6.3572,-6.3621,-6.3665,-6.3704,-6.3736,-6.3762,-6.3796,-6.3748,-6.3792,-6.3852,-6.3884,-6.3946,-6.4,-6.4039,-6.4042,-6.3983,-6.3977,-6.4001,-6.4014,-6.4021,-6.4015,-6.3666,-6.3968,-6.3965,-6.3963,-6.3962,-6.3961,-6.3794,-6.3856,-6.3869,-6.3925,-6.394,-6.3966,-6.402,-6.401,-6.4059,-6.4106,-6.4076,-6.4147,-6.416,-6.4206,-6.4218,-6.4271,-6.4224,-6.426,-6.4268,-6.4277,-6.4289,-6.4017,-6.4279,-6.4278,-6.4277,-6.4277,-6.4276,0,-6.4062,-6.4067,-6.4119,-6.4158,-6.4202,-6.4145,-6.4171,-6.421,-6.4274,-6.4292,-6.4333,-6.4402,-6.4454,-6.4443,-6.4489,-6.4534,-6.4508,-6.4548,-6.4542,-6.4543,-6.433,-6.4303,-6.4568,-6.4568,-6.4568,-6.4568,-6.4568,-6.4568,-6.4207,-6.4307,-6.4291,-6.4398,-6.4401,-6.447,-6.4489,-6.4512,-6.4526,-6.4606,-6.4649,-6.4642,-6.4648,-6.4694,-6.4739,-6.4734,-6.4752,-6.4801,-6.4786,-6.4587,-6.4558,-6.453,-6.4504,-6.4807,-6.4807,-6.4993,-6.4995,-6.4996]},{"header":{"parameterUnit":"m.s-1","parameterCategory":1,"la1":30.2991,"la2":30.254,"lo1":-89.0895,"lo2":-89.0444,"dy":0.0017,"dx":0.0017,"nx":28,"ny":28,"refTime":"2023-08-19T21:00:00:Z","depth":0,"parameterNumber":3,"parameterNumberName":"V-component_of_WINDS"},"data":[0,0,0,0,0,0,0,0,0,0,0,0,0,0,0,0,0,0,0,0,0,0,0,0,0,0,0,0,0,0,0,0,0,0,0,0,0,0,0,0,0,0,0,0,0,0,0,0,0,0,0,0,0,0,0,0,0,0,1.2384,1.2384,0,1.2416,1.2417,1.2417,1.2399,1.2398,1.2397,1.2396,1.2428,1.243,1.2432,0,0,0,0,0,0,0,0,0,0,0,0,0,1.2307,1.2309,1.2384,1.2384,1.2385,1.2416,1.2417,1.2417,1.2399,1.2398,1.2397,1.2396,1.2428,1.243,1.2432,0,0,0,0,0,0,0,0,0,0,0,0,0,1.234,1.2309,1.2384,1.238,1.2379,1.2416,1.2417,1.2417,1.2399,1.2398,1.2397,1.2395,1.2427,1.243,1.2432,1.2474,0,0,1.244,1.2441,0,0,0,0,0,0,0,0,1.2338,1.2343,1.238,1.238,1.238,1.2402,1.2401,1.2436,1.24,1.2392,1.2396,1.2395,1.2421,1.2424,1.2433,1.2476,1.2477,1.244,1.2442,1.2443,1.2443,0,0,0,0,0,0,0,1.2336,1.2341,1.2397,1.238,1.238,1.2376,1.2379,1.2408,1.2413,1.2392,1.2391,1.2395,1.242,1.243,1.2433,1.2478,1.244,1.2442,1.2444,1.2445,1.256,1.2562,0,0,0,0,0,0,1.2334,1.234,1.2396,1.2398,1.2355,1.2379,1.2382,1.2396,1.2413,1.2414,1.2396,1.2394,1.2427,1.243,1.2434,1.2486,1.2443,1.2445,1.2446,1.2559,1.2561,1.2562,0,0,0,0,0,0,1.2332,1.2339,1.2394,1.2368,1.2375,1.2382,1.2397,1.2398,1.2407,1.2416,1.2417,1.2405,1.2426,1.2431,1.2465,1.2487,1.2446,1.2448,1.2557,1.2559,1.2561,1.259,0,0,0,0,0,0,1.233,1.2339,1.2354,1.2369,1.2377,1.2424,1.2399,1.2399,1.2412,1.241,1.2425,1.2426,1.2425,1.2462,1.2468,1.249,1.245,1.2555,1.2558,1.2561,1.2587,1.2593,1.2598,0,0,0,0,0,1.2328,1.236,1.2355,1.2362,1.2396,1.2426,1.243,1.2429,1.2414,1.243,1.2436,1.2425,1.2484,1.2465,1.2472,1.2495,1.2553,1.2557,1.256,1.2584,1.2592,1.2598,0,0,0,0,0,0,1.2347,1.2362,1.2356,1.2395,1.2409,1.2423,1.2443,1.2436,1.2455,1.2451,1.2449,1.2453,1.2489,1.2496,1.2474,1.2538,1.2516,1.2521,1.2532,1.2539,1.2545,1.2542,1.2452,0,0,0,0,0,1.2356,1.2378,1.239,1.2423,1.2431,1.2436,1.2448,1.2447,1.2461,1.2467,1.2475,1.249,1.2512,1.2526,1.2546,1.2588,1.2592,1.2608,1.2613,1.2618,1.2622,1.2646,1.2654,1.2574,1.2574,1.2574,0,0,1.2374,1.2385,1.2399,1.2427,1.2438,1.2462,1.2441,1.2466,1.2484,1.2471,1.2504,1.2511,1.2527,1.2566,1.2584,1.2573,1.2645,1.2622,1.2626,1.2627,1.2651,1.2658,1.2665,1.2576,1.2576,1.2575,0,0,1.2419,1.243,1.2459,1.2471,1.2489,1.2492,1.25,1.2515,1.2519,1.2553,1.2544,1.2565,1.2603,1.2615,1.2626,1.268,1.2672,1.2687,1.2715,1.2739,1.2745,1.2751,1.2771,1.2778,1.2692,1.2692,1.2692,0,1.2439,1.2475,1.2475,1.2502,1.2515,1.2506,1.2536,1.2547,1.2571,1.258,1.2568,1.2617,1.2627,1.2669,1.2683,1.2692,1.2701,1.2685,1.2745,1.275,1.2755,1.2774,1.2782,1.2693,1.2693,1.2693,1.2693,0,1.2499,1.2524,1.2546,1.257,1.2586,1.2614,1.2619,1.2635,1.2633,1.2638,1.2674,1.2687,1.271,1.2721,1.2718,1.2764,1.2757,1.2745,1.2722,1.2765,1.2783,1.279,1.2696,1.2695,1.2695,1.2694,0,0,1.2555,1.2581,1.2589,1.26,1.2621,1.264,1.2669,1.2693,1.2708,1.2725,1.275,1.2783,1.2773,1.2786,1.2786,1.2807,1.285,1.2792,1.2793,1.2803,1.2902,1.2911,1.2919,1.2845,1.2846,1.2848,1.2901,0,1.2602,1.2652,1.2655,1.2701,1.2725,1.2718,1.2744,1.2759,1.2766,1.2788,1.2795,1.2819,1.2804,1.2812,1.2832,1.284,1.287,1.2837,1.2868,1.2869,1.2864,1.2928,1.2937,1.2986,1.2908,1.2909,1.291,0,1.2662,1.2683,1.2732,1.2751,1.2761,1.2784,1.2808,1.2829,1.2847,1.2851,1.2867,1.2864,1.2894,1.2873,1.2915,1.2893,1.2906,1.2913,1.2915,1.2917,1.2891,1.2932,1.3002,1.301,1.2921,1.292,1.2919,0,1.2698,1.2739,1.2774,1.2784,1.2807,1.2824,1.2834,1.2851,1.2866,1.2887,1.2897,1.2922,1.2935,1.2954,1.2958,1.2941,1.3001,1.2979,1.3005,1.3005,1.3017,1.3016,1.309,1.3027,1.3026,1.3026,1.3026,0,1.275,1.278,1.2791,1.2812,1.2847,1.285,1.2884,1.2893,1.2909,1.2933,1.2929,1.2951,1.2956,1.2979,1.2983,1.3018,1.3024,1.3028,1.3029,1.3028,1.3028,1.3036,1.3033,1.3028,1.3028,1.3027,1.3027,0,1.2795,1.2803,1.2841,1.2861,1.2867,1.2892,1.2909,1.293,1.2937,1.2968,1.2975,1.2986,1.3014,1.3021,1.3053,1.3056,1.3098,1.3096,1.3092,1.3092,1.3118,1.3115,1.3199,1.3211,1.314,1.3141,1.3141,0,1.2827,1.2851,1.2874,1.289,1.2902,1.2927,1.2944,1.2949,1.2966,1.299,1.3009,1.3037,1.3059,1.3104,1.3115,1.3141,1.3139,1.3167,1.3143,1.3142,1.314,1.3138,1.3141,1.3171,1.3172,1.3172,1.3173,0,1.2883,1.2887,1.2911,1.2937,1.2957,1.2977,1.2997,1.301,1.3018,1.3038,1.3067,1.3085,1.312,1.3148,1.3174,1.3185,1.3181,1.3181,1.3188,1.3188,1.3185,1.3187,1.3105,1.3178,1.3178,1.3177,1.3177,1.3177,1.2923,1.2944,1.2965,1.2992,1.3008,1.3027,1.3049,1.306,1.3084,1.3114,1.3115,1.3147,1.3168,1.3203,1.3216,1.3242,1.3233,1.3244,1.3246,1.3249,1.3251,1.3182,1.3247,1.3246,1.3246,1.3246,1.3246,0,1.2979,1.2993,1.3018,1.3047,1.3069,1.3064,1.3086,1.3105,1.3133,1.3153,1.3176,1.3211,1.3239,1.3253,1.3281,1.3299,1.3298,1.3306,1.3305,1.3308,1.3257,1.3248,1.3307,1.3307,1.3307,1.3307,1.3307,1.3307,1.3011,1.3047,1.3054,1.3099,1.3113,1.3144,1.3158,1.3176,1.3192,1.3231,1.3255,1.3265,1.3283,1.3313,1.3339,1.3342,1.3353,1.3362,1.3365,1.3317,1.3311,1.3305,1.3296,1.3365,1.3365,1.3413,1.3414,1.3414]}]]